Location: Piotrkow Trybunalski
(51.4000°N, 19.6830°E)
Time: 05:20:19
(UTC+02:00)

A-11 Canister half - Pass Details

Date: 01 February 2023
Orbit: 1526 x 1682 km, 47.3° (Epoch: 25 March)

Event Time Altitude Azimuth Distance (km) Brightness Sun altitude
Rises 12:48:56 0° 287° (WNW) 4,734 11.5 20.5°
Reaches altitude 10° 12:52:32 10° 276° (W) 3,769 11.2 20.4°
Maximum altitude 13:00:06 28° 223° (SW) 2,680 11.7 20.0°
Drops below altitude 10° 13:07:51 10° 170° (S) 3,857 12.4 19.7°
Sets 13:11:37 0° 160° (SSE) 4,863 12.4 19.5°
